FW8604 Weather Reports


time (UTC)temp
F
wind
direction
speed
knots
gust
knots
rain 1hr
in
rain 24hr
in
rain mn
in
humidity
%
barometer
mb
20260507191233 56 273 0.9 7.0 0.00 0.07 0.07 79 1008.9
20260507190333 56 271 5.2 7.0 0.00 0.07 0.07 78 1009.3
20260507185433 56 253 3.5 7.0 0.00 0.07 0.07 78 1009.9
20260507184533 56 265 1.7 7.8 0.00 0.07 0.07 79 1008.9
20260507183633 56 267 4.3 11.3 0.01 0.07 0.07 81 1008.9
20260507182734 56 278 1.7 7.8 0.01 0.07 0.07 82 1008.0
20260507181833 56 247 3.5 7.8 0.01 0.07 0.07 83 1006.7
20260507180933 55 229 3.5 7.8 0.01 0.07 0.07 83 1006.2
20260507180033 55 238 4.3 11.3 0.01 0.07 0.07 83 1006.5
20260507175133 55 236 1.7 11.3 0.01 0.07 0.07 85 1006.6
20260507174233 54 203 5.2 9.6 0.00 0.06 0.06 85 1005.4
20260507173335 54 218 4.3 13.9 0.01 0.06 0.06 88 1004.8
20260507172433 54 208 7.8 17.4 0.01 0.06 0.06 86 1005.5
20260507171533 54 200 9.6 14.8 0.01 0.06 0.06 86 1005.2
20260507170633 54 216 7.8 20.0 0.01 0.06 0.06 86 1006.7
20260507165733 55 206 4.3 23.5 0.01 0.06 0.06 91 1007.7
20260507164834 55 197 2.6 12.2 0.01 0.06 0.06 92 1006.9
20260507163933 55 204 6.1 14.8 0.01 0.06 0.06 90 1007.9
20260507163034 56 201 7.0 15.6 0.01 0.05 0.05 88 1007.7
20260507162133 58 238 8.7 17.4 0.02 0.05 0.05 81 1010.4
20260507161233 60 221 8.7 23.5 0.02 0.05 0.05 76 1010.8
20260507154533 59 210 9.6 21.7 0.02 0.05 0.05 77 1008.6
20260507152733 60 240 7.8 17.4 0.01 0.04 0.04 78 1009.4
20260507151833 62 270 7.0 17.4 0.00 0.02 0.02 69 1010.5
20260507150034 61 228 9.6 25.2 0.00 0.02 0.02 66 1010.3
20260507145133 62 215 13.0 33.9 0.00 0.02 0.02 64 1009.1
20260507144236 62 208 21.7 35.6 0.00 0.02 0.02 64 1008.1
20260507143333 62 213 15.6 31.3 0.00 0.02 0.02 67 1007.4
20260507142434 62 230 15.6 27.8 0.00 0.02 0.02 69 1007.3
20260507140634 62 217 9.6 29.5 0.00 0.02 0.02 66 1007.5
20260507135733 62 218 15.6 29.5 0.00 0.02 0.02 64 1008.3
20260507134833 62 219 10.4 25.2 0.00 0.02 0.02 65 1008.0
20260507133933 63 232 8.7 26.1 0.00 0.02 0.02 70 1009.6
20260507133033 64 229 11.3 23.5 0.00 0.02 0.02 68 1007.2
20260507132133 65 202 13.0 18.2 0.00 0.02 0.02 70 1006.1
20260507131233 65 208 13.0 29.5 0.00 0.02 0.02 65 1005.8
20260507130335 65 200 16.5 29.5 0.00 0.02 0.02 71 1006.2
20260507124534 65 201 7.0 18.2 0.00 0.02 0.02 78 1006.4
20260507123633 65 219 10.4 18.2 0.00 0.02 0.02 82 1006.1
20260507122733 65 216 9.6 15.6 0.00 0.02 0.02 87 1005.4
20260507120933 66 179 9.6 18.2 0.00 0.02 0.02 86 1005.7
20260507120035 66 201 11.3 23.5 0.00 0.02 0.02 86 1005.8
20260507115133 66 199 9.6 18.2 0.00 0.02 0.02 87 1005.5
20260507114233 66 184 6.1 15.6 0.00 0.02 0.02 87 1005.2
20260507112433 66 190 13.0 20.9 0.00 0.02 0.02 86 1004.7
20260507111533 66 190 11.3 18.2 0.00 0.02 0.02 87 1004.2
20260507110634 66 203 7.0 19.1 0.00 0.02 0.02 88 1003.9
20260507105733 66 213 7.8 19.1 0.00 0.02 0.02 90 1003.5
20260507104833 66 208 8.7 14.8 0.00 0.02 0.02 89 1003.7
20260507103933 66 209 5.2 13.9 0.00 0.02 0.02 90 1003.6
20260507102133 66 201 7.0 13.0 0.00 0.02 0.02 91 1003.4
20260507100333 66 206 8.7 17.4 0.01 0.02 0.02 91 1002.8
20260507095142 67 205 8.7 14.8 0.01 0.02 0.02 92 1002.8